DW5599 Weather Reports


Display with metric or nautical units.
time (UTC)temp
F
wind
direction
speed
MPH
gust
MPH
rain 1hr
in
rain 24hr
in
rain mn
in
humidity
%
barometer
mb
20181023113003 60 98 0.0 11.0 0.00 0.11 0.00 78 1022.2
20181023104559 59 112 0.0 13.0 0.00 0.15 0.00 82 1021.5
20181023101526 58 107 0.0 9.0 0.00 0.15 0.00 83 1021.1
20181023093008 57 183 2.0 10.0 0.00 0.15 0.00 79 1020.4
20181023084504 56 202 0.0 5.0 0.00 0.15 0.00 78 1019.3
20181023083024 57 202 0.0 1.0 0.00 0.15 0.00 77 1019.2
20181023081536 57 203 0.0 5.0 0.00 0.15 0.00 77 1018.9
20181023074515 57 202 0.0 5.0 0.00 0.15 0.00 77 1018.5
20181023073028 58 200 0.0 3.0 0.00 0.15 0.00 78 1018.6
20181023071517 58 195 0.0 7.0 0.00 0.15 0.00 77 1018.4
20181023061514 59 189 0.0 0.0 0.00 0.15 0.00 76 1018.3
20181023054508 60 186 0.0 5.0 0.00 0.15 0.00 74 1018.4
20181023053032 60 190 0.0 6.0 0.00 0.15 0.00 72 1018.4
20181023044511 60 190 0.0 1.0 0.00 0.15 0.00 77 1018.7
20181023043006 60 190 0.0 1.0 0.00 0.15 0.00 78 1019.1
20181023023011 63 90 0.0 1.0 0.00 0.15 0.15 70 1018.8
20181023021505 63 90 0.0 0.0 0.00 0.15 0.15 72 1018.5
20181023011503 63 90 0.0 0.0 0.00 0.15 0.15 69 1018.2
20181023004508 63 106 0.0 2.0 0.00 0.15 0.15 69 1017.9
20181023001525 63 106 0.0 0.0 0.00 0.15 0.15 68 1017.6
20181022233004 62 90 0.0 5.0 0.00 0.15 0.15 69 1017.2
20181022231516 62 109 0.0 4.0 0.00 0.15 0.15 68 1017.2
20181022211517 62 203 3.0 9.0 0.01 0.13 0.13 86 1016.4
20181022203014 62 126 0.0 9.0 0.01 0.13 0.13 87 1015.7
20181022201503 62 126 0.0 1.0 0.01 0.13 0.13 87 1016.3
20181022184521 63 98 0.0 2.0 0.00 0.11 0.11 82 1015.9
20181022183008 63 92 0.0 2.0 0.00 0.11 0.11 82 1015.7
20181022181528 63 102 0.0 5.0 0.00 0.11 0.11 82 1015.6
20181022174507 63 115 0.0 10.0 0.00 0.11 0.11 82 1015.8
20181022173001 63 94 0.0 5.0 0.00 0.11 0.11 82 1015.5
20181022171517 62 85 0.0 9.0 0.00 0.11 0.11 82 1015.8
20181022153040 61 151 1.0 7.0 0.00 0.09 0.09 85 1015.2
20181022151514 61 155 2.0 15.0 0.01 0.09 0.09 85 1015.6
20181022141502 61 186 1.0 9.0 0.00 0.09 0.09 84 1016.5
20181022134524 61 177 0.0 9.0 0.01 0.09 0.09 84 1016.3
20181022133019 59 165 0.0 5.0 0.02 0.09 0.09 86 1015.7